Back to catalog

FENGYUN 1C DEB

LostPO
NORAD 38505·DEBRIS·🇨🇳 China

Launched May 10, 1999 from Taiyuan Satellite Launch Center

Loading…

Next Passes (next 24 hours)

TLE

StaleSource: Space-Track

Epoch: Aug 22, 2022, 20:47 UTC

1 38505U 99025ESQ 22234.86611318  .00002341  00000-0  13171-2 0  9998
2 38505  98.3426 107.4531 0180001  67.7846 294.2309 14.03416269679584

Track FENGYUN 1C DEB in real time with AllMySat

Download on the App Store